| time (UTC) | temp C | wind direction | speed KPH | gust KPH | rain 1hr cm | rain 24hr cm | rain mn cm | humidity % | barometer mb |
| 20260508180033 | 20 | 360 | 16.1 | 30.6 | 0.00 | 0.00 | 0.00 | 100 | 1017.6 |
| 20260508174537 | 19 | 5 | 14.5 | 29.0 | 0.00 | 0.00 | 0.00 | 100 | 1018.0 |
| 20260508173028 | 19 | 324 | 16.1 | 29.0 | 0.00 | 0.00 | 0.00 | 100 | 1018.4 |
| 20260508171526 | 19 | 355 | 11.3 | 19.3 | 0.00 | 0.00 | 0.00 | 100 | 1018.5 |
| 20260508170024 | 18 | 332 | 16.1 | 27.4 | 0.00 | 0.00 | 0.00 | 100 | 1018.7 |
| 20260508164527 | 18 | 341 | 14.5 | 24.1 | 0.00 | 0.00 | 0.00 | 100 | 1018.9 |
| 20260508163019 | 18 | 332 | 11.3 | 24.1 | 0.00 | 0.00 | 0.00 | 100 | 1019.0 |
| 20260508161519 | 18 | 342 | 16.1 | 25.7 | 0.00 | 0.00 | 0.00 | 100 | 1019.3 |
| 20260508160016 | 17 | 355 | 9.7 | 27.4 | 0.00 | 0.00 | 0.00 | 100 | 1019.4 |
| 20260508154509 | 17 | 330 | 16.1 | 24.1 | 0.00 | 0.00 | 0.00 | 100 | 1019.7 |
| 20260508153007 | 17 | 355 | 16.1 | 25.7 | 0.00 | 0.00 | 0.00 | 100 | 1020.0 |
| 20260508151506 | 17 | 331 | 11.3 | 24.1 | 0.00 | 0.00 | 0.00 | 100 | 1020.0 |
| 20260508150005 | 16 | 347 | 14.5 | 27.4 | 0.00 | 0.00 | 0.00 | 100 | 1020.2 |
| 20260508144600 | 15 | 348 | 14.5 | 25.7 | 0.00 | 0.00 | 0.00 | 100 | 1020.3 |
| 20260508143103 | 15 | 360 | 14.5 | 24.1 | 0.00 | 0.00 | 0.00 | 100 | 1020.4 |
| 20260508141552 | 13 | 329 | 12.9 | 19.3 | 0.00 | 0.00 | 0.00 | 100 | 1020.4 |
| 20260508140048 | 12 | 314 | 9.7 | 22.5 | 0.00 | 0.00 | 0.00 | 100 | 1020.6 |
| 20260508134545 | 11 | 355 | 12.9 | 20.9 | 0.00 | 0.00 | 0.00 | 100 | 1020.7 |
| 20260508133041 | 10 | 331 | 8.0 | 17.7 | 0.00 | 0.00 | 0.00 | 100 | 1020.7 |
| 20260508131540 | 10 | 360 | 8.0 | 16.1 | 0.00 | 0.00 | 0.00 | 100 | 1020.9 |
| 20260508130101 | 10 | 318 | 6.4 | 14.5 | 0.00 | 0.00 | 0.00 | 100 | 1020.8 |
| 20260508124536 | 9 | 327 | 9.7 | 17.7 | 0.00 | 0.00 | 0.00 | 100 | 1020.9 |
| 20260508123035 | 9 | 314 | 6.4 | 16.1 | 0.00 | 0.00 | 0.00 | 100 | 1020.8 |
| 20260508121533 | 8 | 341 | 4.8 | 9.7 | 0.00 | 0.00 | 0.00 | 100 | 1020.7 |
| 20260508120027 | 7 | 335 | 3.2 | 8.0 | 0.00 | 0.00 | 0.00 | 100 | 1020.8 |
| 20260508114523 | 7 | 321 | 1.6 | 8.0 | 0.00 | 0.00 | 0.00 | 100 | 1020.8 |
| 20260508113020 | 6 | 360 | 3.2 | 6.4 | 0.00 | 0.00 | 0.00 | 100 | 1020.5 |
| 20260508111520 | 5 | 360 | 1.6 | 4.8 | 0.00 | 0.00 | 0.00 | 100 | 1020.3 |
| 20260508110016 | 4 | 294 | 0.0 | 3.2 | 0.00 | 0.00 | 0.00 | 100 | 1020.4 |
| 20260508104523 | 3 | 293 | 0.0 | 1.6 | 0.00 | 0.00 | 0.00 | 100 | 1020.2 |
| 20260508103020 | 3 | 293 | 0.0 | 3.2 | 0.00 | 0.00 | 0.00 | 100 | 1020.2 |
| 20260508101514 | 3 | 292 | 0.0 | 3.2 | 0.00 | 0.00 | 0.00 | 100 | 1020.0 |
| 20260508100015 | 3 | 360 | 0.0 | 3.2 | 0.00 | 0.00 | 0.00 | 100 | 1020.1 |
| 20260508094512 | 3 | 360 | 0.0 | 0.0 | 0.00 | 0.00 | 0.00 | 100 | 1020.1 |
| 20260508093012 | 3 | 360 | 0.0 | 0.0 | 0.00 | 0.00 | 0.00 | 100 | 1020.1 |
| 20260508091515 | 3 | 360 | 0.0 | 0.0 | 0.00 | 0.00 | 0.00 | 100 | 1020.1 |
| 20260508090015 | 3 | 360 | 0.0 | 0.0 | 0.00 | 0.00 | 0.00 | 100 | 1020.0 |
| 20260508084509 | 3 | 360 | 0.0 | 0.0 | 0.00 | 0.00 | 0.00 | 100 | 1020.0 |
| 20260508083009 | 3 | 360 | 0.0 | 0.0 | 0.00 | 0.00 | 0.00 | 100 | 1020.0 |
| 20260508081508 | 3 | 360 | 0.0 | 0.0 | 0.00 | 0.00 | 0.00 | 100 | 1019.9 |
| 20260508080008 | 3 | 360 | 0.0 | 0.0 | 0.00 | 0.00 | 0.00 | 100 | 1019.8 |
| 20260508074506 | 3 | 360 | 0.0 | 0.0 | 0.00 | 0.00 | 0.00 | 100 | 1019.9 |
| 20260508073005 | 3 | 360 | 0.0 | 0.0 | 0.00 | 0.00 | 0.00 | 100 | 1019.9 |
| 20260508071507 | 3 | 360 | 0.0 | 0.0 | 0.00 | 0.00 | 0.00 | 100 | 1019.9 |
| 20260508070013 | 3 | 360 | 0.0 | 0.0 | 0.00 | 0.00 | 0.00 | 100 | 1020.0 |
| 20260508064501 | 3 | 360 | 0.0 | 0.0 | 0.00 | 0.00 | 0.00 | 100 | 1020.3 |
| 20260508063101 | 3 | 360 | 0.0 | 0.0 | 0.00 | 0.00 | 0.00 | 100 | 1020.4 |
| 20260508061605 | 3 | 360 | 0.0 | 0.0 | 0.00 | 0.00 | 0.00 | 100 | 1020.1 |
| 20260508060059 | 3 | 360 | 0.0 | 0.0 | 0.00 | 0.00 | 0.00 | 100 | 1020.3 |
| 20260508054557 | 4 | 126 | 0.0 | 0.0 | 0.00 | 0.00 | 0.00 | 100 | 1020.4 |
| 20260508053105 | 4 | 360 | 0.0 | 0.0 | 0.00 | 0.00 | 0.00 | 100 | 1020.3 |
| 20260508051555 | 4 | 360 | 0.0 | 0.0 | 0.00 | 0.00 | 0.00 | 100 | 1020.5 |
| 20260508050059 | 5 | 124 | 0.0 | 0.0 | 0.00 | 0.00 | 0.00 | 100 | 1020.4 |
| 20260508044552 | 5 | 124 | 0.0 | 0.0 | 0.00 | 0.00 | 0.00 | 100 | 1020.4 |
| 20260508043101 | 5 | 360 | 0.0 | 0.0 | 0.00 | 0.00 | 0.00 | 100 | 1020.4 |
| 20260508041549 | 5 | 123 | 0.0 | 0.0 | 0.00 | 0.00 | 0.00 | 100 | 1020.4 |
| 20260508040047 | 5 | 123 | 0.0 | 0.0 | 0.00 | 0.00 | 0.00 | 100 | 1020.2 |
| 20260508034545 | 5 | 123 | 0.0 | 3.2 | 0.00 | 0.00 | 0.00 | 100 | 1020.2 |
| 20260508033045 | 6 | 124 | 0.0 | 3.2 | 0.00 | 0.00 | 0.00 | 100 | 1020.3 |
| 20260508031551 | 6 | 124 | 0.0 | 1.6 | 0.00 | 0.00 | 0.00 | 100 | 1020.1 |
| 20260508030052 | 6 | 124 | 1.6 | 3.2 | 0.00 | 0.00 | 0.00 | 100 | 1020.3 |
| 20260508024551 | 6 | 124 | 0.0 | 3.2 | 0.00 | 0.00 | 0.00 | 100 | 1020.3 |
| 20260508023045 | 6 | 124 | 0.0 | 1.6 | 0.00 | 0.00 | 0.00 | 100 | 1020.2 |
| 20260508021543 | 7 | 124 | 0.0 | 3.2 | 0.00 | 0.00 | 0.00 | 100 | 1020.3 |
| 20260508020043 | 7 | 125 | 0.0 | 0.0 | 0.00 | 0.00 | 0.00 | 100 | 1020.3 |
| 20260508014542 | 7 | 360 | 0.0 | 0.0 | 0.00 | 0.00 | 0.00 | 100 | 1020.0 |
| 20260508013041 | 8 | 360 | 0.0 | 0.0 | 0.00 | 0.00 | 0.00 | 100 | 1020.1 |
| 20260508011543 | 9 | 124 | 0.0 | 0.0 | 0.00 | 0.00 | 0.00 | 100 | 1019.9 |
| 20260508010042 | 10 | 360 | 0.0 | 0.0 | 0.00 | 0.00 | 0.00 | 100 | 1019.8 |
| 20260508004540 | 11 | 360 | 0.0 | 3.2 | 0.00 | 0.00 | 0.00 | 100 | 1019.8 |
| 20260508003039 | 11 | 360 | 0.0 | 1.6 | 0.00 | 0.00 | 0.00 | 100 | 1019.7 |
| 20260508001540 | 12 | 124 | 0.0 | 1.6 | 0.00 | 0.00 | 0.00 | 100 | 1019.5 |
| 20260508000039 | 13 | 124 | 0.0 | 1.6 | 0.00 | 0.00 | 0.00 | 100 | 1019.3 |
| 20260507234542 | 13 | 125 | 0.0 | 3.2 | 0.00 | 0.00 | 0.00 | 100 | 1019.2 |
| 20260507233038 | 14 | 113 | 0.0 | 4.8 | 0.00 | 0.00 | 0.00 | 100 | 1019.1 |
| 20260507231537 | 14 | 108 | 1.6 | 4.8 | 0.00 | 0.00 | 0.00 | 100 | 1019.4 |
| 20260507230036 | 14 | 338 | 3.2 | 9.7 | 0.00 | 0.00 | 0.00 | 100 | 1019.3 |
| 20260507224536 | 15 | 115 | 1.6 | 4.8 | 0.00 | 0.00 | 0.00 | 100 | 1019.3 |
| 20260507223036 | 14 | 150 | 1.6 | 11.3 | 0.00 | 0.00 | 0.00 | 100 | 1019.4 |
| 20260507221535 | 15 | 111 | 4.8 | 14.5 | 0.00 | 0.00 | 0.00 | 100 | 1019.5 |
| 20260507220034 | 15 | 109 | 4.8 | 11.3 | 0.00 | 0.00 | 0.00 | 100 | 1019.4 |
| 20260507214533 | 15 | 128 | 3.2 | 12.9 | 0.00 | 0.00 | 0.00 | 100 | 1019.3 |
| 20260507213037 | 15 | 121 | 3.2 | 11.3 | 0.00 | 0.00 | 0.00 | 100 | 1019.2 |
| 20260507211532 | 15 | 102 | 4.8 | 11.3 | 0.00 | 0.00 | 0.00 | 100 | 1019.2 |
| 20260507210032 | 15 | 113 | 3.2 | 14.5 | 0.00 | 0.00 | 0.00 | 100 | 1019.1 |
| 20260507204531 | 15 | 130 | 1.6 | 9.7 | 0.00 | 0.00 | 0.00 | 100 | 1019.0 |
| 20260507203032 | 15 | 108 | 4.8 | 17.7 | 0.00 | 0.00 | 0.00 | 100 | 1018.9 |
| 20260507201536 | 15 | 126 | 6.4 | 16.1 | 0.00 | 0.00 | 0.00 | 100 | 1018.9 |
| 20260507200027 | 15 | 132 | 8.0 | 19.3 | 0.00 | 0.00 | 0.00 | 100 | 1019.1 |
| 20260507194527 | 15 | 124 | 4.8 | 14.5 | 0.00 | 0.00 | 0.00 | 100 | 1019.1 |
| 20260507193031 | 15 | 73 | 4.8 | 16.1 | 0.00 | 0.00 | 0.00 | 100 | 1019.3 |
| 20260507191529 | 15 | 157 | 3.2 | 12.9 | 0.00 | 0.00 | 0.00 | 100 | 1019.2 |
| 20260507190029 | 15 | 76 | 4.8 | 14.5 | 0.00 | 0.00 | 0.00 | 100 | 1019.3 |
| 20260507184523 | 15 | 129 | 1.6 | 11.3 | 0.00 | 0.00 | 0.00 | 100 | 1019.4 |
| 20260507183033 | 15 | 10 | 3.2 | 20.9 | 0.00 | 0.00 | 0.00 | 100 | 1019.4 |
| 20260507181520 | 15 | 78 | 3.2 | 9.7 | 0.00 | 0.00 | 0.00 | 100 | 1019.5 |